Location: Caltech
(34.1382°N, 118.1253°W)
Time: 00:35:25
(UTC-07:00)

BREEZE M DEB (TANK) - Visible Passes

Search period start: 18 October 2017 00:00
Search period end: 28 October 2017 00:00
Orbit: 335 x 13680 km, 49.5° (Epoch: 15 October)

Date Brightness Start Highest point End Pass type
(mag) Time Alt. Az. Time Alt. Az. Time Alt. Az.
18 Oct 9.1 06:09:39 10° S 07:50:21 48° ESE 08:25:26 10° ENE visible
19 Oct 10.7 04:40:39 10° ESE 04:59:42 11° E 05:14:50 10° E visible
19 Oct 5.3 18:59:58 10° WNW 19:03:56 19° WSW 19:06:12 10° SSW visible
20 Oct 9.5 05:18:46 10° SSE 06:49:16 37° ESE 07:26:30 10° ENE visible
22 Oct 9.9 04:34:29 10° SE 05:49:11 27° ESE 06:25:39 10° ENE visible
23 Oct 9.0 05:55:54 10° S 07:42:28 55° ESE 08:18:27 10° NE visible
24 Oct 10.4 04:01:32 10° SE 04:50:23 17° E 05:20:17 10° ENE visible
24 Oct 6.2 18:54:20 10° W 18:55:29 11° WSW 18:56:26 10° WSW visible
25 Oct 9.4 05:02:24 10° SSE 06:40:51 44° ESE 07:19:56 10° ENE visible
26 Oct 8.6 06:41:40 10° SSW 08:36:53 74° SE 09:08:38 10° NE visible
27 Oct 9.8 04:13:52 10° SSE 05:40:11 33° ESE 06:20:05 10° ENE visible
